Winston-Salem, NC

4:41 PM EST on November 21, 2019 (GMT -0500)
Smith Reynolds

Weather History for KINT - October, 2019

Change the Weather History Date:

Monday, October 21, 2019

  Actual Average Record
Temperature  
Mean Temperature 59 °F -  
Max Temperature 69 °F 66 °F 84 °F (1985)
Min Temperature 50 °F 46 °F 24 °F (1972)
Degree Days  
Heating Degree Days 6    
Growing Degree Days 9 (Base 50)    
Moisture  
Dew Point 56 °F    
Average Humidity 89    
Maximum Humidity 100    
Minimum Humidity 73    
Precipitation  
Precipitation 0.00 in - - ()
Sea Level Pressure  
Sea Level Pressure 30.05 in    
Wind  
Wind Speed 2 mph (ESE)    
Max Wind Speed 6 mph    
Max Gust Speed -    
Visibility 9 miles    
Events      
Averages and records for this station are not official NWS values.
T = Trace of Precipitation, MM = Missing Value Source: NWS Daily Summary

Daily Weather History Graph

Daily Weather History Graph

Search for Another Location

Airport or City:

Astronomy

Oct. 21, 2019 Rise Set
Actual Time 7:32 AM EDT 6:37 PM EDT
Civil Twilight 7:06 AM EDT 7:03 PM EDT
Nautical Twilight 6:36 AM EDT 7:33 PM EDT
Astronomical Twilight 6:07 AM EDT 8:03 PM EDT
Moon No Moon Rise 2:43 PM EDT
Length of Visible Light 11h 56m
Length of Day
11h 04m
Waning Gibbous, 48% of the Moon is Illuminated
Oct 21
Waning Gibbous
Oct 27
New
Nov 4
First Quarter
Nov 12
Full
Nov 19
Last Quarter

Hourly Weather History & Observations

Time (EDT) Temp. Dew Point Humidity Pressure Visibility Wind Dir Wind Speed Gust Speed Precip Events Conditions
12:54 AM 57.0 °F 55.0 °F 93% 29.99 in 10.0 mi North 3.5 mph - N/A   Clear
1:54 AM 57.0 °F 55.0 °F 93% 29.99 in 10.0 mi NNE 3.5 mph - N/A   Clear
2:54 AM 55.0 °F 54.0 °F 96% 30.00 in 10.0 mi Calm Calm - N/A   Clear
3:54 AM 53.1 °F 51.1 °F 93% 30.00 in 10.0 mi Calm Calm - N/A   Unknown
4:54 AM 53.1 °F 52.0 °F 96% 30.01 in 6.0 mi Calm Calm - N/A   Clear
5:09 AM 52.0 °F 51.1 °F 97% 30.03 in 2.0 mi North 3.5 mph - N/A   Clear
5:24 AM 54.0 °F 53.1 °F 97% 30.04 in 8.0 mi Calm Calm - N/A   Clear
5:49 AM 51.8 °F 51.8 °F 100% 30.04 in 2.5 mi Calm Calm - N/A   Partly Cloudy
5:54 AM 51.1 °F 50.0 °F 96% 30.03 in 1.0 mi Calm Calm - N/A   Mist
6:08 AM 51.1 °F 50.0 °F 96% 30.05 in 2.0 mi Calm Calm - N/A   Partly Cloudy
6:16 AM 52.0 °F 51.1 °F 97% 30.05 in 10.0 mi North 3.5 mph - N/A   Partly Cloudy
6:38 AM 50.0 °F 48.9 °F 96% 30.05 in 2.5 mi Calm Calm - N/A   Scattered Clouds
6:45 AM 50.0 °F 48.9 °F 96% 30.05 in 10.0 mi Calm Calm - N/A   Partly Cloudy
6:54 AM 51.1 °F 48.9 °F 92% 30.04 in 10.0 mi Calm Calm - N/A   Partly Cloudy
7:54 AM 51.1 °F 50.0 °F 96% 30.06 in 10.0 mi North 3.5 mph - N/A   Clear
8:54 AM 55.0 °F 54.0 °F 96% 30.07 in 10.0 mi Calm Calm - N/A   Overcast
9:54 AM 59.0 °F 57.9 °F 96% 30.08 in 10.0 mi Calm Calm - N/A   Mostly Cloudy
10:01 AM 60.1 °F 57.9 °F 93% 30.10 in 10.0 mi Calm Calm - N/A   Overcast
10:09 AM 60.1 °F 57.9 °F 93% 30.09 in 10.0 mi Calm Calm - N/A   Unknown
10:36 AM 60.8 °F 57.2 °F 88% 30.09 in 10.0 mi Variable 3.5 mph - N/A   Mostly Cloudy
10:54 AM 62.1 °F 59.0 °F 90% 30.09 in - Calm Calm - N/A   Overcast
11:03 AM 62.1 °F 59.0 °F 90% 30.10 in 10.0 mi Calm Calm - N/A   Unknown
11:54 AM 64.0 °F 57.9 °F 80% 30.09 in 10.0 mi Calm Calm - N/A   Unknown
12:07 PM 64.0 °F 57.9 °F 80% 30.11 in 10.0 mi SE 3.5 mph - N/A   Mostly Cloudy
12:54 PM 66.0 °F 57.9 °F 75% 30.07 in 10.0 mi Variable 4.6 mph - N/A   Mostly Cloudy
1:54 PM 66.9 °F 59.0 °F 76% 30.06 in 10.0 mi SSE 5.8 mph - N/A   Overcast
2:54 PM 66.9 °F 59.0 °F 76% 30.04 in 10.0 mi East 3.5 mph - N/A   Overcast
3:54 PM 68.0 °F 59.0 °F 73% 30.04 in 10.0 mi ESE 5.8 mph - N/A   Overcast
4:54 PM 68.0 °F 59.0 °F 73% 30.03 in 10.0 mi SSE 4.6 mph - N/A   Overcast
5:38 PM 68.0 °F 60.1 °F 76% 30.04 in 10.0 mi SE 4.6 mph - N/A   Overcast
5:54 PM 68.0 °F 60.1 °F 76% 30.03 in 10.0 mi SSE 3.5 mph - N/A   Mostly Cloudy
6:54 PM 64.9 °F 61.0 °F 87% 30.03 in 10.0 mi Calm Calm - N/A   Partly Cloudy
7:54 PM 64.0 °F 61.0 °F 90% 30.04 in 10.0 mi Calm Calm - N/A   Overcast
8:54 PM 64.9 °F 60.1 °F 84% 30.05 in 10.0 mi Calm Calm - N/A   Overcast
9:54 PM 64.9 °F 61.0 °F 87% 30.04 in 10.0 mi Calm Calm - N/A   Overcast
10:54 PM 64.0 °F 61.0 °F 90% 30.03 in 10.0 mi SE 5.8 mph - N/A   Overcast
11:54 PM 64.9 °F 60.1 °F 84% 30.04 in 10.0 mi SSE 5.8 mph - N/A   Scattered Clouds